{"data":{"norad_id":40146,"intl_designator":"2014-054A","name":"OPTUS 10","alt_names":[],"object_type":"PAYLOAD","status":"ACTIVE","operator":null,"country":"AUS","launch_date":"2014-09-11","launch_site_code":"FRGUI","launch_vehicle":null,"mission":null,"orbit_class":"UNKNOWN","rcs_meters":51.5754,"size_class":null,"mass_kg":null,"dimensions":null,"purposes":["comms"],"wikipedia_slug":null,"has_3d_model":false,"image_url":null,"decayed_at":null,"tle_current":{"epoch":"2026-09-19T05:44:17.387232Z","epoch_age_seconds":120139,"freshness":"FRESH","line1":"1 40146U 14054A   26262.23909013 -.00000151  00000+0  00000+0 0  9990","line2":"2 40146   0.0232 210.4743 0001939 324.9797  64.7888  1.00272618 43979","mean_motion":1.00272618,"eccentricity":0.0001939,"inclination_deg":0.0232,"raan_deg":210.4743,"arg_perigee_deg":324.9797,"mean_anomaly_deg":64.7888,"bstar":0,"rev_number":4397,"period_min":1436.0849738659,"perigee_km":35778.18574642,"apogee_km":35794.537138917,"semimajor_km":42164.498442669,"source":"CELESTRAK","updated_at":"2026-09-20T09:00:35.211935Z"}}}